STARLINK-1175

decayed
NORAD ID: 45097 Int'l Des: 2020-006 Owner: SPXS Country: US Constellation: starlink
LEOCIRCULAR
Group

About STARLINK-1175

Description loading...

Altitude History

Altitude vs Time

uPlot chart will show altitude changes over time

Two-Line Element Set

1 45097U 20006BF 21077.92898017 .11012273 12156-4 21011-2 0 9997
2 45097 52.9706 297.1523 0011421 281.5423 79.1913 16.30956567 66201
Epoch: Mar 18, 2021 • Age: 39447 hours

Current Status

Position data unavailable
Launch Date Jan 29, 2020
Age 5.6 years
Decay Date Mar 19, 2021
Type internet

Technical Details

Classification Payload
Mass 260.00 kg
Dry Mass 248.00 kg
Total Mass 260.00 kg
Length 0.20 m
Diameter 2.80 m
Span 9.00 m
Shape Box + pan
Manufacturer SPXS
Bus Type Starlink
Phase Status Reentered
Owner/State SPXS/US

Large Constellations

Loading constellations...